Madera Ranchos
DateTemperatureDew Point
08/31 - 03:15 AM56.5°51.8°
08/31 - 03:00 AM56.8°51.7°
08/31 - 02:45 AM57.3°51.6°
08/31 - 02:30 AM57.6°51.5°
08/31 - 02:15 AM58.0°51.6°
08/31 - 02:00 AM57.7°51.7°
08/31 - 01:45 AM59.3°51.7°
08/31 - 01:30 AM60.7°51.3°
08/31 - 01:15 AM61.6°51.5°
08/31 - 01:00 AM62.2°51.8°
08/31 - 12:45 AM62.4°51.9°
08/31 - 12:30 AM62.6°51.9°
08/31 - 12:15 AM62.5°51.7°
08/31 - 12:00 AM62.8°51.4°
08/30 - 11:45 PM63.7°51.3°
08/30 - 11:30 PM63.8°50.6°
08/30 - 11:15 PM64.0°49.9°
08/30 - 11:00 PM64.7°49.6°
08/30 - 10:45 PM65.5°49.2°
08/30 - 10:30 PM66.3°48.8°
08/30 - 10:15 PM67.3°48.5°
08/30 - 10:00 PM68.3°48.2°
08/30 - 09:45 PM69.3°48.0°
08/30 - 09:30 PM69.8°48.2°
08/30 - 09:15 PM70.8°48.4°
08/30 - 09:00 PM72.3°48.9°
08/30 - 08:45 PM72.9°49.1°
08/30 - 08:30 PM70.5°51.2°
08/30 - 08:15 PM68.5°54.4°
08/30 - 08:00 PM71.4°55.4°
08/30 - 07:45 PM73.3°52.2°
08/30 - 07:30 PM75.3°51.6°
08/30 - 07:15 PM77.6°51.2°
08/30 - 07:00 PM80.6°50.5°
08/30 - 06:45 PM84.0°49.4°
08/30 - 06:30 PM86.0°49.1°
08/30 - 06:15 PM87.4°50.0°
08/30 - 06:00 PM88.7°50.9°
08/30 - 05:45 PM89.5°51.7°
08/30 - 05:30 PM90.2°52.2°
08/30 - 05:15 PM90.8°52.8°
08/30 - 05:00 PM91.3°53.3°
08/30 - 04:45 PM91.3°52.6°
08/30 - 04:30 PM91.4°52.7°
08/30 - 04:15 PM92.3°52.6°
08/30 - 04:00 PM92.1°52.6°
08/30 - 03:45 PM92.3°52.2°
08/30 - 03:30 PM92.8°52.0°
08/30 - 03:15 PM92.6°52.0°
08/30 - 03:00 PM92.0°52.0°
08/30 - 02:45 PM92.2°52.6°
08/30 - 02:30 PM91.8°52.9°
08/30 - 02:15 PM90.4°52.2°
08/30 - 02:00 PM89.8°52.8°
08/30 - 01:45 PM89.2°52.9°
08/30 - 01:30 PM89.6°53.3°
08/30 - 01:15 PM88.4°53.0°
08/30 - 01:00 PM87.3°54.0°
08/30 - 12:45 PM85.9°53.1°
08/30 - 12:30 PM85.5°53.0°
08/30 - 12:15 PM84.5°53.7°
08/30 - 12:00 PM84.1°53.7°
08/30 - 11:45 AM82.3°52.5°
08/30 - 11:30 AM82.1°52.7°
08/30 - 11:15 AM81.1°52.4°
08/30 - 11:00 AM79.8°52.0°
08/30 - 10:45 AM78.7°51.4°
08/30 - 10:30 AM78.2°51.1°
08/30 - 10:15 AM77.6°50.1°
08/30 - 10:00 AM77.6°49.5°
08/30 - 09:45 AM75.8°50.1°
08/30 - 09:30 AM75.1°49.6°
08/30 - 09:15 AM73.7°48.6°
08/30 - 09:00 AM72.7°48.8°
08/30 - 08:45 AM71.2°48.7°
08/30 - 08:30 AM70.1°49.7°
08/30 - 08:15 AM68.7°50.9°
08/30 - 08:00 AM67.1°50.8°
08/30 - 07:45 AM65.3°50.9°
08/30 - 07:30 AM63.4°50.6°
08/30 - 07:15 AM62.1°50.2°
08/30 - 07:00 AM60.7°49.9°
08/30 - 06:45 AM59.7°49.6°
08/30 - 06:30 AM58.9°49.4°
08/30 - 06:15 AM58.7°49.2°
08/30 - 06:00 AM59.4°49.0°
08/30 - 05:45 AM59.9°48.8°
08/30 - 05:30 AM60.2°48.8°
08/30 - 05:15 AM60.4°48.7°
08/30 - 05:00 AM60.4°48.7°
08/30 - 04:45 AM60.0°48.6°
08/30 - 04:30 AM59.7°48.6°
08/30 - 04:15 AM60.5°48.5°
08/30 - 04:00 AM61.7°48.5°
08/30 - 03:45 AM62.6°48.5°
08/30 - 03:30 AM63.0°48.6°
08/30 - 03:15 AM63.8°48.5°
08/30 - 03:00 AM64.5°48.5°
08/30 - 02:45 AM65.1°48.4°
08/30 - 02:30 AM65.9°48.3°
08/30 - 02:15 AM65.8°48.6°
08/30 - 02:00 AM66.4°48.9°
08/30 - 01:45 AM66.7°49.8°
08/30 - 01:30 AM67.6°50.3°
08/30 - 01:15 AM68.8°50.7°
08/30 - 01:00 AM69.4°51.4°
08/30 - 12:45 AM69.6°52.0°
08/30 - 12:30 AM69.9°52.6°
08/30 - 12:15 AM69.6°53.3°
08/30 - 12:00 AM69.4°53.7°
08/29 - 11:45 PM69.7°54.1°
08/29 - 11:30 PM70.3°54.3°
08/29 - 11:15 PM70.9°54.1°
08/29 - 11:00 PM71.3°54.3°
08/29 - 10:45 PM71.9°54.4°
08/29 - 10:30 PM73.0°54.7°
08/29 - 10:15 PM73.7°54.7°
08/29 - 10:00 PM74.7°54.5°
08/29 - 09:45 PM75.3°54.5°
08/29 - 09:30 PM75.9°54.7°
08/29 - 09:15 PM75.9°54.7°
08/29 - 09:00 PM76.0°55.1°
08/29 - 08:45 PM76.7°55.1°
08/29 - 08:30 PM77.2°54.4°
08/29 - 08:15 PM78.7°53.1°
08/29 - 08:00 PM80.2°51.7°
08/29 - 07:45 PM81.5°50.3°
08/29 - 07:30 PM82.4°51.1°
08/29 - 07:15 PM85.1°51.2°
08/29 - 07:00 PM86.9°52.6°
08/29 - 06:45 PM88.6°54.3°
08/29 - 06:30 PM90.1°55.7°
08/29 - 06:15 PM91.6°55.6°
08/29 - 06:00 PM92.4°55.3°
08/29 - 05:45 PM93.2°55.0°
08/29 - 05:30 PM93.8°55.5°
08/29 - 05:15 PM93.7°55.7°
08/29 - 05:00 PM94.2°56.1°
08/29 - 04:45 PM94.8°55.7°
08/29 - 04:30 PM95.3°56.4°
08/29 - 04:15 PM95.6°55.8°
08/29 - 04:00 PM96.8°55.6°
08/29 - 03:45 PM96.6°55.8°
08/29 - 03:30 PM96.8°56.0°
08/29 - 03:15 PM96.8°55.1°
08/29 - 03:00 PM96.6°55.0°
08/29 - 02:45 PM97.0°54.4°
08/29 - 02:30 PM96.4°53.7°
08/29 - 02:15 PM97.0°53.9°
08/29 - 02:00 PM96.3°53.2°
08/29 - 01:45 PM95.1°51.5°
08/29 - 01:30 PM94.9°51.3°
08/29 - 01:15 PM94.7°51.3°
08/29 - 01:00 PM95.4°51.2°
08/29 - 12:45 PM93.1°48.6°
08/29 - 12:30 PM92.5°48.6°
08/29 - 12:15 PM92.6°47.9°
08/29 - 12:00 PM91.5°47.0°
08/29 - 11:45 AM90.8°46.1°
08/29 - 11:30 AM89.4°44.7°
08/29 - 11:15 AM87.8°44.3°
08/29 - 11:00 AM87.1°45.5°
08/29 - 10:45 AM86.1°46.3°
08/29 - 10:30 AM85.1°47.5°
08/29 - 10:15 AM84.0°49.9°
08/29 - 10:00 AM82.7°51.5°
08/29 - 09:45 AM81.5°53.2°
08/29 - 09:30 AM79.9°53.8°
08/29 - 09:15 AM78.6°54.4°
08/29 - 09:00 AM77.2°53.8°
08/29 - 08:45 AM75.7°53.3°
08/29 - 08:30 AM73.6°52.2°
08/29 - 08:15 AM71.9°53.6°
08/29 - 08:00 AM70.3°53.9°
08/29 - 07:45 AM68.6°55.6°
08/29 - 07:30 AM67.0°54.8°
08/29 - 07:15 AM64.6°53.7°
08/29 - 07:00 AM62.3°54.6°
08/29 - 06:45 AM60.7°54.2°
08/29 - 06:30 AM59.5°52.7°
08/29 - 06:15 AM58.3°52.7°
08/29 - 06:00 AM57.2°53.9°
08/29 - 05:45 AM58.4°53.5°
08/29 - 05:30 AM59.0°52.1°
08/29 - 05:15 AM58.7°52.4°
08/29 - 05:00 AM57.7°53.5°
08/29 - 04:45 AM57.4°54.5°
08/29 - 04:30 AM58.0°54.7°
08/29 - 04:15 AM58.9°53.8°